Zurück zum Katalog

DELTA 1 DEB

AktivSSO
NORAD 14464·DEBRIS·🇺🇸 United States

Gestartet Mar 5, 1978 von Vandenberg Space Force Base

Loading…

Nächste Überflüge (nächste 24 Stunden)

TLE

AktuellSource: Space-Track

Epoche: Sep 12, 2026, 04:55 UTC

1 14464U 78026GE  26255.20554170 -.00000017  00000-0  21926-4 0  9999
2 14464  99.4018 123.1902 0059811 296.8851 192.3253 13.94503210232867

Verfolge DELTA 1 DEB in Echtzeit mit AllMySat

Download on the App Store